Temp
11 11 11 10 10 10 10 11 11 11 11 12 12 12 12 12 12 13 14 15 14 14 14 14 14 14 14 14 15 15 14 15 14 14 14 13 14 13 13 13 13 13 13
10 9 9 9 9 10 10 10 10 10 10 10 11 11 12 12 12 12 12 13 14 14 14 14 14 14 14 14 14 15 15 14 14 14 14 13 13 13 13 13 13 13 13
9 9 9 9 9 9 9 9 9 8 8 9 9 9 9 10 11 11 11 11 12 13 14 13 14 14 14 14 14 14 14 14 14 14 14 14 13 13 12 12 13 13 13
9 8 9 9 9 9 8 7 6 6 6 6 6 7 7 8 8 9 10 10 11 12 13 13 13 13 13 13 13 14 14 14 14 14 15 14 14 15 13 12 12 13 13
8 8 8 8 8 8 7 5 5 4 4 4 3 3 4 6 6 7 8 9 9 10 11 12 12 13 12 12 13 13 13 13 13 13 13 13 13 14 14 12 12 12 13
8 8 7 7 7 6 5 4 3 3 3 2 2 3 4 5 3 4 4 5 7 8 10 11 11 12 12 12 12 12 13 13 13 13 13 13 12 13 13 12 11 12 13
7 6 6 6 6 5 4 2 1 2 2 -1 -2 -0 0 1 1 1 2 3 4 6 8 10 10 9 10 11 11 12 12 12 13 12 13 13 12 13 13 12 11 11 12
6 5 5 5 5 5 4 2 1 -0 -1 -2 -5 -3 -1 1 1 4 3 2 3 4 5 7 9 8 9 10 10 11 12 12 12 12 12 12 13 12 12 12 12 11 11
5 5 4 4 4 4 3 1 -0 -2 -4 -4 -5 -5 -4 -2 -4 1 2 3 2 4 5 5 6 7 8 9 10 10 11 11 11 11 11 11 12 12 12 11 11 12 11
5 4 4 4 4 3 2 0 -1 -2 -3 -4 -5 -5 -5 -5 -4 -3 1 1 1 2 4 5 6 7 8 8 9 9 9 10 10 11 11 11 12 11 11 12 11 11 12
4 4 4 4 3 2 1 -0 -0 -2 -3 -4 -5 -5 -5 -4 -4 -3 -2 -1 -0 1 2 4 6 7 7 7 8 8 9 10 10 10 10 11 11 11 12 11 11 11 12
3 4 4 4 3 2 1 0 -0 -2 -3 -4 -5 -5 -6 -6 -5 -4 -3 -3 -2 -1 0 2 3 4 6 7 7 8 9 9 10 10 9 10 10 11 12 11 11 12 12
4 4 3 3 2 1 0 -0 -1 -2 -2 -4 -5 -7 -7 -6 -5 -4 -3 -3 -2 -1 -0 2 2 2 3 4 6 7 8 10 10 9 10 10 10 11 12 11 11 11 11
4 3 2 2 1 1 0 -1 -2 -2 -2 -4 -5 -6 -7 -7 -5 -4 -4 -3 -2 -1 -0 0 1 2 2 4 4 6 8 9 9 10 9 10 11 11 13 11 11 11 10
2 2 1 1 0 0 -0 -1 -2 -2 -3 -4 -5 -6 -7 -6 -5 -4 -4 -3 -3 -2 0 1 0 1 1 2 3 4 6 6 7 8 9 9 10 10 11 11 10 11 11
1 1 0 -0 -0 0 -1 -1 -1 -2 -3 -3 -4 -6 -7 -6 -6 -5 -4 -3 -2 -2 -1 -0 0 -0 -0 1 3 3 3 5 6 7 8 9 9 9 9 10 10 10 10
0 -0 -0 -1 -1 -0 -1 -1 -2 -2 -2 -3 -4 -4 -6 -6 -6 -5 -4 -3 -2 -1 -1 -1 -0 -0 0 2 2 2 2 4 4 4 5 6 8 8 8 9 9 9 9
-0 -1 -1 -1 -1 -1 -1 -1 -2 -2 -2 -2 -3 -4 -5 -6 -5 -5 -4 -3 -2 -1 -1 -1 -2 -1 -0 -1 -0 1 0 3 3 3 4 4 5 6 6 7 8 8 8
-1 -1 -2 -2 -2 -1 -1 -2 -2 -3 -2 -2 -3 -4 -4 -6 -5 -6 -5 -3 -2 -1 -0 -1 -3 -3 -2 -2 -2 -1 1 -0 -1 2 3 2 4 5 4 5 4 5 5
-1 -1 -2 -3 -2 -2 -2 -3 -3 -3 -3 -2 -3 -4 -3 -5 -5 -6 -5 -4 -4 -3 -3 -3 -4 -4 -4 -4 -3 -4 -2 -1 -1 -1 -1 -1 -0 1 2 2 3 3 3
-2 -2 -3 -3 -3 -3 -3 -3 -3 -3 -3 -3 -3 -4 -4 -4 -4 -5 -5 -5 -4 -4 -4 -5 -5 -5 -4 -4 -5 -5 -5 -4 -4 -4 -3 -3 -2 -1 -1 -1 0 0 1
-2 -3 -3 -3 -3 -3 -4 -4 -4 -4 -3 -4 -4 -4 -4 -5 -5 -4 -4 -4 -4 -4 -5 -5 -6 -6 -6 -6 -6 -5 -5 -5 -5 -5 -5 -4 -4 -4 -4 -4 -4 -3 -2
-3 -3 -3 -4 -4 -4 -4 -4 -5 -5 -4 -4 -4 -5 -4 -5 -5 -5 -5 -4 -4 -4 -4 -5 -5 -6 -7 -7 -6 -6 -4 -4 -5 -6 -6 -6 -7 -6 -6 -5 -5 -4 -3
-4 -4 -4 -4 -5 -5 -5 -5 -5 -5 -5 -4 -5 -5 -5 -5 -6 -6 -5 -4 -4 -4 -5 -5 -5 -6 -6 -6 -6 -6 -6 -6 -7 -6 -5 -7 -7 -7 -7 -7 -6 -5 -5
-5 -5 -5 -6 -6 -6 -6 -6 -6 -6 -6 -5 -5 -6 -6 -6 -6 -6 -6 -5 -6 -6 -7 -7 -7 -7 -7 -6 -6 -5 -5 -6 -6 -6 -6 -7 -7 -8 -8 -7 -7 -7 -6
-5 -6 -6 -7 -7 -7 -7 -7 -7 -7 -7 -6 -6 -7 -7 -7 -7 -7 -6 -7 -6 -8 -8 -7 -7 -7 -6 -6 -6 -5 -6 -6 -6 -7 -8 -8 -8 -7 -11 -8 -8 -7 -6
Height
1533 1531 1528 1526 1523 1520 1518 1514 1511 1507 1505 1501 1500 1497 1495 1493 1492 1490 1490 1492 1492 1493 1494 1496 1498 1500 1502 1504 1507 1510 1513 1516 1518 1520 1523 1527 1529 1533 1538 1540 1542 1545 1546
1530 1528 1526 1524 1521 1518 1514 1510 1505 1501 1497 1493 1490 1487 1484 1483 1480 1479 1479 1479 1481 1482 1483 1486 1487 1490 1493 1496 1499 1502 1504 1507 1510 1514 1516 1519 1523 1526 1531 1535 1537 1539 1542
1527 1525 1523 1520 1517 1513 1509 1504 1498 1493 1488 1484 1479 1477 1474 1471 1469 1468 1467 1468 1470 1471 1473 1475 1478 1480 1483 1487 1490 1493 1496 1499 1503 1506 1509 1512 1516 1519 1523 1528 1532 1533 1536
1525 1523 1520 1518 1514 1510 1504 1497 1491 1486 1481 1476 1471 1467 1464 1461 1459 1458 1457 1456 1457 1460 1462 1465 1468 1470 1473 1477 1480 1483 1489 1491 1494 1498 1503 1506 1509 1512 1515 1519 1524 1527 1529
1523 1520 1517 1513 1509 1504 1497 1491 1485 1479 1474 1469 1463 1459 1455 1453 1451 1447 1445 1445 1446 1448 1451 1453 1457 1460 1463 1466 1470 1474 1479 1482 1486 1490 1493 1497 1501 1503 1506 1509 1515 1520 1522
1520 1517 1512 1508 1504 1499 1493 1488 1482 1478 1472 1465 1459 1454 1451 1447 1444 1442 1439 1436 1434 1436 1439 1443 1446 1450 1453 1456 1460 1465 1469 1473 1477 1481 1485 1486 1490 1494 1497 1501 1503 1511 1515
1517 1513 1509 1505 1500 1494 1488 1483 1477 1472 1468 1462 1455 1449 1444 1444 1441 1440 1437 1433 1428 1426 1428 1433 1437 1440 1444 1447 1450 1455 1460 1464 1467 1471 1476 1478 1484 1487 1491 1494 1497 1491 1506
1513 1509 1505 1500 1496 1492 1488 1482 1477 1470 1466 1461 1457 1451 1444 1444 1440 1435 1435 1431 1425 1423 1421 1423 1428 1432 1437 1439 1442 1445 1450 1454 1458 1463 1467 1472 1475 1480 1483 1487 1491 1493 1496
1510 1507 1504 1499 1494 1489 1485 1480 1476 1470 1464 1461 1460 1458 1453 1448 1437 1432 1430 1428 1426 1421 1419 1421 1423 1427 1429 1434 1436 1438 1442 1445 1449 1454 1459 1462 1466 1471 1475 1480 1485 1488 1491
1508 1505 1502 1497 1493 1489 1485 1479 1475 1469 1464 1460 1459 1457 1456 1453 1447 1434 1429 1428 1425 1422 1419 1418 1419 1422 1424 1428 1427 1429 1432 1436 1440 1445 1451 1455 1458 1463 1466 1472 1477 1481 1485
1507 1503 1499 1496 1492 1488 1484 1478 1473 1468 1464 1459 1456 1452 1450 1448 1446 1443 1433 1428 1425 1424 1422 1419 1417 1416 1419 1421 1423 1425 1428 1432 1435 1439 1443 1449 1453 1455 1460 1464 1469 1471 1476
1504 1501 1498 1493 1490 1486 1483 1477 1472 1467 1463 1458 1454 1451 1448 1447 1444 1442 1436 1431 1428 1424 1424 1422 1418 1415 1416 1418 1419 1422 1425 1429 1432 1436 1439 1441 1446 1449 1453 1456 1460 1463 1467
1502 1500 1497 1493 1489 1485 1481 1476 1472 1468 1462 1457 1452 1448 1445 1443 1441 1438 1435 1431 1428 1427 1425 1423 1422 1419 1420 1415 1416 1419 1423 1425 1429 1432 1434 1437 1440 1442 1444 1448 1453 1456 1458
1500 1498 1495 1491 1487 1485 1479 1475 1471 1467 1461 1456 1451 1446 1442 1439 1436 1435 1433 1432 1427 1427 1426 1426 1423 1423 1423 1416 1421 1417 1420 1421 1424 1428 1432 1433 1434 1436 1438 1443 1447 1450 1452
1500 1497 1495 1491 1488 1484 1478 1475 1471 1467 1462 1457 1450 1445 1440 1436 1433 1431 1430 1430 1429 1427 1426 1423 1422 1420 1420 1421 1423 1421 1420 1421 1425 1425 1427 1428 1428 1430 1433 1437 1441 1442 1445
1498 1496 1494 1492 1487 1484 1479 1476 1471 1467 1463 1457 1451 1445 1440 1435 1431 1429 1428 1428 1427 1427 1427 1425 1426 1424 1425 1426 1418 1423 1425 1422 1423 1426 1426 1427 1427 1428 1430 1433 1435 1437 1440
1497 1495 1492 1491 1487 1483 1480 1477 1472 1468 1464 1458 1454 1447 1441 1436 1431 1428 1427 1426 1424 1423 1424 1425 1424 1425 1424 1420 1426 1425 1424 1422 1423 1425 1425 1427 1429 1428 1429 1431 1433 1436 1437
1495 1494 1492 1489 1487 1483 1481 1478 1474 1470 1466 1460 1455 1449 1443 1438 1433 1429 1426 1425 1423 1422 1423 1423 1424 1424 1424 1427 1423 1426 1426 1423 1426 1426 1425 1425 1429 1426 1428 1429 1430 1433 1433
1494 1493 1492 1489 1487 1484 1482 1479 1475 1472 1468 1462 1458 1453 1447 1441 1436 1432 1428 1425 1423 1422 1423 1423 1424 1425 1426 1427 1428 1426 1422 1425 1430 1426 1426 1432 1426 1427 1430 1430 1431 1433 1434
1493 1492 1491 1489 1486 1484 1483 1480 1477 1473 1470 1465 1461 1456 1451 1446 1441 1437 1432 1428 1427 1424 1424 1425 1426 1427 1428 1428 1427 1427 1425 1427 1422 1426 1431 1431 1428 1427 1429 1431 1431 1434 1435
1493 1491 1490 1488 1487 1485 1484 1481 1479 1475 1472 1468 1465 1460 1456 1452 1448 1443 1438 1435 1432 1430 1429 1429 1429 1429 1429 1429 1430 1431 1433 1429 1430 1432 1430 1431 1429 1429 1431 1432 1430 1434 1434
1491 1490 1489 1488 1487 1486 1484 1482 1480 1478 1475 1471 1468 1465 1461 1456 1454 1450 1445 1441 1438 1436 1434 1434 1433 1433 1433 1432 1433 1433 1433 1433 1433 1434 1434 1431 1432 1433 1434 1435 1435 1435 1433
1489 1489 1488 1488 1487 1486 1485 1483 1481 1479 1477 1474 1471 1468 1465 1461 1458 1455 1453 1449 1445 1442 1441 1440 1438 1436 1436 1436 1434 1434 1434 1434 1434 1436 1436 1436 1436 1435 1437 1436 1435 1435 1434
1488 1488 1488 1488 1488 1487 1486 1484 1482 1481 1479 1476 1473 1471 1468 1466 1462 1460 1458 1455 1451 1449 1446 1445 1444 1443 1442 1441 1440 1439 1439 1438 1438 1438 1437 1439 1438 1439 1440 1440 1439 1438 1436
1486 1486 1487 1487 1488 1487 1486 1485 1483 1482 1480 1478 1476 1474 1472 1469 1467 1465 1463 1459 1457 1454 1452 1451 1450 1449 1447 1445 1443 1442 1441 1441 1441 1439 1440 1439 1440 1439 1440 1440 1439 1438 1436
1484 1485 1486 1487 1487 1487 1486 1485 1484 1483 1482 1480 1478 1476 1474 1472 1471 1469 1467 1464 1461 1459 1458 1458 1456 1454 1452 1449 1447 1445 1444 1443 1442 1442 1442 1442 1441 1440 1441 1440 1438 1437 1435
Wind_Speed
20 21 22 23 24 26 28 29 31 33 34 35 35 35 36 37 37 38 39 39 37 36 38 39 40 38 36 36 36 35 35 33 35 34 32 33 32 31 31 31 30 30 29
19 20 21 23 25 28 31 34 36 37 38 37 37 38 39 39 41 42 42 42 42 41 38 36 41 42 40 38 39 38 37 38 37 35 35 34 34 32 33 34 33 32 32
19 21 23 25 29 31 34 38 40 39 38 38 38 37 38 40 41 42 44 44 44 44 42 38 35 41 42 40 40 40 39 39 38 39 38 37 36 34 36 36 36 34 34
19 20 22 25 27 33 38 37 35 34 33 33 33 34 35 37 39 41 42 43 44 45 45 42 37 38 42 42 40 40 41 41 39 39 33 35 33 39 40 41 38 37 35
19 21 22 23 28 34 36 35 33 32 32 32 31 31 31 31 31 33 37 39 41 42 45 45 41 39 40 41 43 43 42 40 38 40 37 40 42 47 45 42 40 39 36
19 21 23 23 28 32 32 30 28 27 27 28 30 30 30 25 17 18 21 26 32 36 40 44 45 39 42 40 43 43 39 38 40 43 39 45 52 49 42 40 44 41 38
21 21 21 23 28 32 32 30 28 27 26 24 27 31 21 18 10 11 14 19 18 22 31 40 43 43 35 41 38 45 43 41 40 42 37 33 36 37 37 38 39 43 40
19 21 23 25 29 31 30 28 27 26 21 22 22 23 17 15 12 21 10 14 18 13 19 29 37 30 35 31 37 39 41 42 42 39 38 44 47 38 37 37 37 40 38
20 21 21 23 25 28 29 27 24 23 23 20 18 12 10 9 36 12 14 9 14 12 7 13 20 23 27 31 25 25 37 43 41 37 35 34 38 36 40 35 37 40 40
18 18 19 21 23 24 25 25 24 23 21 21 19 12 13 18 12 21 14 19 18 20 14 1 14 18 23 21 22 26 26 33 34 40 40 35 40 40 44 37 33 40 42
15 16 18 19 19 21 23 24 25 25 23 20 19 20 19 17 14 19 27 22 18 10 15 15 11 12 17 23 25 25 25 23 25 30 36 38 36 35 40 39 34 32 38
13 15 16 17 18 20 21 23 24 24 24 22 19 17 16 15 16 17 22 26 24 20 12 13 13 14 10 19 16 21 19 16 20 20 24 30 33 36 38 41 38 33 42
12 13 14 16 17 18 19 20 22 25 27 25 21 18 17 16 14 17 20 22 23 16 14 10 4 11 11 9 9 7 14 18 15 19 18 22 27 27 30 33 36 35 33
11 12 14 15 16 16 17 19 21 23 26 26 22 19 17 14 13 14 16 14 20 13 8 5 7 6 7 11 6 7 12 11 10 16 16 19 23 26 27 28 31 30 28
9 10 12 13 14 15 16 17 19 21 25 26 25 20 18 15 11 11 14 14 16 12 6 1 5 8 9 10 7 9 7 10 7 6 5 8 16 21 25 26 27 26 28
7 8 10 12 13 14 15 16 18 19 21 24 26 22 20 16 11 8 8 11 14 14 14 1 3 9 2 3 8 6 8 4 4 2 3 3 5 10 16 19 19 18 22
6 7 9 10 12 14 15 16 17 19 20 21 24 24 22 18 14 8 5 6 7 11 15 2 9 10 4 5 6 12 11 6 9 3 4 1 3 6 9 12 13 16 18
4 6 7 9 12 13 14 16 18 20 20 21 23 24 26 23 16 12 7 4 2 0 7 12 12 13 13 12 13 18 20 15 10 9 4 4 1 2 4 7 9 13 16
4 5 6 8 11 13 14 16 17 19 20 23 23 25 25 26 23 17 12 7 4 3 2 11 14 15 16 17 14 14 18 20 18 11 8 4 4 2 3 2 2 4 7
3 3 4 7 9 11 12 15 16 17 19 21 23 25 27 26 25 22 18 14 10 9 12 15 15 15 16 15 17 15 14 14 17 15 14 13 13 10 7 7 4 4 3
1 2 3 6 8 8 11 13 14 15 16 18 21 23 26 27 26 23 21 20 17 17 16 16 16 13 13 13 13 17 16 16 16 15 13 12 13 13 13 11 11 8 5
1 2 3 5 7 8 10 13 14 14 14 16 18 19 22 24 26 26 24 22 21 20 21 19 20 20 18 13 8 7 9 7 8 11 14 13 11 13 15 15 14 10 9
2 2 3 4 6 8 10 12 14 14 14 15 17 18 19 22 23 23 23 22 23 25 25 22 21 19 16 17 18 14 11 3 7 8 9 9 10 13 15 15 15 13 11
3 3 3 4 5 6 9 10 13 14 14 15 16 17 18 19 21 21 20 22 24 24 25 23 22 21 18 13 9 10 14 16 11 9 11 11 6 7 10 13 14 13 13
5 3 3 4 4 5 7 8 10 11 13 15 16 16 17 17 19 18 17 20 22 25 24 21 20 18 16 17 16 13 7 6 15 14 11 13 12 5 6 12 14 15 13
5 4 3 3 3 4 4 6 8 9 10 12 14 15 16 16 16 16 17 18 20 23 20 18 16 16 16 17 17 18 19 18 9 8 15 15 16 10 3 10 11 15 14
Wind_Direction
334 335 334 333 331 328 324 318 314 309 305 299 293 285 279 273 266 261 258 256 256 255 253 249 246 241 240 239 236 230 228 229 227 226 225 230 227 229 230 227 224 220 215
341 340 337 335 333 329 325 321 317 313 308 302 294 287 282 275 271 265 259 254 251 251 251 250 245 242 239 237 235 232 231 229 227 227 224 225 228 229 231 231 226 223 219
344 343 341 339 334 331 328 322 318 313 309 304 299 292 284 279 274 268 265 258 251 248 248 248 247 240 238 238 236 233 230 228 229 228 227 225 225 229 232 231 230 225 222
342 340 337 336 337 337 331 326 323 320 317 315 310 305 298 290 284 277 270 265 256 249 246 245 242 241 238 235 234 232 231 229 237 231 229 236 231 245 235 231 228 227 224
341 341 340 342 345 345 340 333 330 328 327 323 318 315 311 310 301 287 277 271 265 254 247 244 242 237 237 236 231 231 233 233 235 229 241 242 239 245 236 232 229 228 226
341 343 345 348 350 350 345 338 333 330 329 324 319 319 318 323 323 314 307 293 273 260 246 244 243 240 236 238 232 228 231 233 231 237 246 248 246 231 228 233 231 229 227
346 348 348 349 353 354 350 343 340 338 340 338 333 326 336 333 324 340 341 348 314 273 251 240 240 243 241 239 235 232 233 236 239 240 245 224 228 232 230 234 236 235 227
352 353 354 354 354 355 352 346 343 342 345 346 345 344 338 337 314 319 293 5 19 330 268 242 237 242 240 247 247 236 234 235 237 242 234 234 240 233 234 235 237 240 234
354 353 352 354 358 358 357 355 349 346 341 344 344 350 334 312 325 327 315 296 12 24 333 262 243 237 242 244 250 246 236 236 237 238 237 237 224 232 226 237 244 241 238
349 352 355 358 1 4 3 2 355 350 342 337 334 331 314 301 310 317 324 324 311 1 38 326 234 230 235 233 233 233 231 234 234 236 234 238 243 246 234 236 243 235 236
348 354 357 358 357 4 4 6 3 356 347 337 333 326 320 319 314 279 298 315 322 2 22 48 113 202 226 230 231 235 240 235 234 237 236 237 242 237 242 241 242 237 240
351 355 357 360 358 357 360 6 5 1 353 343 333 329 316 309 300 290 290 298 312 315 333 15 60 73 122 209 212 223 228 235 234 236 234 231 230 234 239 239 241 242 239
352 355 359 3 4 2 2 3 4 3 2 353 340 332 323 305 289 279 291 290 297 313 323 6 356 47 50 90 113 169 220 234 246 246 235 231 234 235 240 241 240 240 244
350 356 3 5 7 3 6 7 5 4 5 1 353 344 333 317 293 276 280 295 296 304 300 278 47 48 33 59 38 117 155 186 211 224 241 236 229 230 238 240 237 234 237
347 358 5 6 10 8 12 9 8 8 4 3 4 359 350 338 315 286 271 270 275 297 303 244 84 30 13 30 66 77 107 128 147 143 198 222 220 221 220 224 228 231 232
343 359 8 8 14 12 16 14 13 12 8 9 12 11 5 359 348 317 285 275 268 264 251 294 122 121 48 39 54 83 72 89 156 180 143 206 201 203 210 222 223 225 227
340 358 12 14 18 20 20 17 18 17 14 16 17 19 21 12 8 2 319 297 251 265 230 222 143 159 157 1 144 117 87 77 85 104 106 213 219 186 192 212 219 221 216
336 360 11 20 24 26 26 23 23 20 18 20 23 24 31 26 24 25 20 330 290 284 168 154 138 138 147 148 150 135 119 110 102 91 51 65 164 147 186 176 206 223 231
344 357 8 23 32 31 31 30 29 26 25 26 29 29 31 35 34 33 36 37 51 96 205 171 139 135 143 142 140 131 119 117 117 100 87 126 137 165 125 160 168 207 204
344 353 14 31 37 36 38 38 33 34 33 31 34 38 35 35 41 42 46 52 61 96 119 134 132 125 124 123 125 112 116 124 110 110 116 101 91 94 94 104 108 99 69
318 10 35 41 40 39 43 42 38 36 39 41 37 42 44 44 42 44 54 61 71 83 94 98 97 102 112 116 115 110 109 103 104 111 94 97 85 85 85 80 81 77 76
172 59 51 45 38 44 46 46 44 38 39 47 48 46 49 49 48 49 50 62 68 73 78 81 80 75 72 87 102 131 131 129 93 91 88 82 84 80 71 66 62 60 58
139 95 65 54 44 42 44 45 45 42 43 48 53 51 52 54 53 50 53 56 64 67 67 69 71 71 69 64 70 67 67 89 112 89 78 66 64 66 64 55 44 39 36
152 115 84 64 51 53 50 48 46 41 46 49 55 53 53 53 55 53 52 56 58 62 61 59 60 63 63 66 69 71 67 68 82 92 71 61 70 75 62 47 40 36 30
164 147 115 80 60 61 60 56 55 48 44 47 51 57 55 55 53 52 52 55 59 58 57 57 58 59 57 59 58 62 87 79 64 65 69 60 46 71 58 28 32 27 25
177 163 139 101 58 44 74 64 64 58 51 50 49 50 51 51 52 51 50 55 56 56 53 56 61 63 60 58 57 58 62 63 66 53 42 48 38 43 39 15 15 17 22